Regional Weather Roundup
Issued by NWS

Home | Current Version | Previous Version | Text Only | Print | Product List | Glossary Off
Versions: 1 2 3 4 5 6 7 8 9 10 11 12 13 14 15 16 17 18 19 20 21 22 23 24 25 26 27 28 29 30 31 32 33 34 35 36 37 38 39 40 41 42 43 44 45 46 47 48 49 50

303
ASUS43 KOAX 232002
RWRNE

WEATHER ROUNDUP FOR NEBRASKA
NATIONAL WEATHER SERVICE OMAHA NE
200 PM CST TUE JAN 23 2018

NOTES: SATELLITE DATA IS BEING USED TO AUGMENT CLOUD COVER ABOVE
       12000 FEET.
       "FAIR" INDICATES FEW OR NO CLOUDS BELOW 12,000 FEET WITH NO
       SIGNIFICANT WEATHER AND/OR OBSTRUCTIONS TO VISIBILITY.


NEZ001>004-019>022-054>056-232100-
NEBRASKA PANHANDLE

CITY           SKY/WX    TMP DP  RH WIND       PRES   REMARKS
SCOTTSBLUFF    SUNNY     33  21  61 W14       30.22F WCI  23
ALLIANCE       SUNNY     33  21  61 NW21      30.18F WCI  21
CHADRON        SUNNY     30  22  72 W7        30.21F WCI  23
GORDON         FAIR      32  21  64 W12       30.15F WCI  23
KIMBALL        SUNNY     34  20  57 NW18      30.20F WCI  23
SIDNEY         MOSUNNY   35  22  58 NW14      30.21F WCI  26
$$

NEZ057>060-069>072-079>082-232100-
SOUTHWEST NEBRASKA

CITY           SKY/WX    TMP DP  RH WIND       PRES   REMARKS
NORTH PLATTE   SUNNY     36  25  64 W10       30.20F WCI  28
IMPERIAL       SUNNY     36  24  62 NW12      30.21F WCI  28
LEXINGTON      MOSUNNY   34  29  80 W13       30.18F WCI  25
MCCOOK         SUNNY     34  25  69 W15       30.22S WCI  24
OGALLALA       SUNNY     37  24  59 NW16      30.19F WCI  28
$$

NEZ005>010-023>029-035>040-094-232100-
NORTH CENTRAL NEBRASKA

CITY           SKY/WX    TMP DP  RH WIND       PRES   REMARKS
VALENTINE      CLOUDY    40  28  62 W17       30.12F WCI  31
AINSWORTH      CLOUDY    37  29  72 NW10      30.13S WCI  30
BROKEN BOW     CLOUDY    38  29  70 W8        30.14F WCI  32
O`NEILL        PTSUNNY   36  30  79 W12       30.11F WCI  28
ORD            CLOUDY    37  28  70 NW9       30.14S WCI  30
THEDFORD       MOSUNNY   38  28  66 W10       30.16S WCI  31
$$

NEZ041-046>049-061>064-073>077-083>087-232100-
SOUTH CENTRAL NEBRASKA

CITY           SKY/WX    TMP DP  RH WIND       PRES   REMARKS
GRAND ISLAND   CLOUDY    32  24  72 W10       30.17F WCI  24
AURORA         MOSUNNY   32  24  72 NW9       30.17S WCI  24
HASTINGS       MOSUNNY   34  26  72 NW12      30.17F WCI  25
HEBRON         MOSUNNY   35  26  71 NW9       30.19F WCI  27
HOLDREGE       CLOUDY    35  30  83 NW8       30.19S WCI  28
KEARNEY        CLOUDY    35  28  75 W9        30.18F WCI  28
YORK           MOSUNNY   30  25  80 NW7       30.17F WCI  23
$$

NEZ011>018-030>034-042>045-232100-
NORTHEAST NEBRASKA

CITY           SKY/WX    TMP DP  RH WIND       PRES   REMARKS
NORFOLK        CLOUDY    58  20  22 SW6       30.13F
ALBION         CLOUDY    32  24  71 NW7       30.13F WCI  26
BLAIR          CLOUDY    24  21  87 W8        30.17S WCI  16
COLUMBUS       MOSUNNY   31  26  82 W6        30.17F WCI  25
FREMONT          N/A    N/A N/A N/A MISG        N/A
TEKAMAH        CLOUDY    24  24 100 W8        30.18F WCI  15
WAYNE          CLOUDY    24  24  96 W5        30.14F WCI  19
$$

NEZ050>053-065>068-078-088>093-232100-
SOUTHEAST NEBRASKA

CITY           SKY/WX    TMP DP  RH WIND       PRES   REMARKS
LINCOLN        CLOUDY    27  21  78 W7        30.20F WCI  19
OMAHA EPPLEY   CLOUDY    25  20  81 NW12      30.19S WCI  14
BEATRICE       CLOUDY    29  24  79 NW9       30.19F WCI  21
FALLS CITY     CLOUDY    30  24  78 W10       30.20S WCI  21
NEBRASKA CITY  CLOUDY    27  26  95 W12       30.20R WCI  17
PLATTSMOUTH    CLOUDY    25  22  89 NW12      30.18F WCI  14
$$

NEZ044-045-051>053-067-232100-
OMAHA AREA

CITY           SKY/WX    TMP DP  RH WIND       PRES   REMARKS
OMAHA EPPLEY   CLOUDY    25  20  81 NW12      30.19S WCI  14
BLAIR          CLOUDY    24  21  87 W8        30.17S WCI  16
FREMONT          N/A    N/A N/A N/A MISG        N/A
MILLARD        CLOUDY    26  22  82 W6        30.19F WCI  20
OFFUTT AFB     CLOUDY    26  20  80 W10       30.19S WCI  16
PLATTSMOUTH    CLOUDY    25  22  89 NW12      30.18F WCI  14
WAHOO          CLOUDY    25  21  85 W7        30.19S WCI  17
$$




USA.gov is the U.S. government's official web portal to all federal, state and local government web resources and services.